User: anonymous
Location: Unspecified
(0.0000°N, 0.0000°E)
Time: 10:00:38
(UTC+00:00)
Language:

SO-67 - Orbit

View from above orbital plane
View from above orbital plane
View from above satellite
View from above satellite

Ground track
Ground track

The orbit data is extracted from the following two-line orbital elements,

1 35870U 09049F   14106.82820721  .00011752  00000-0  38263-3 0   595
2 35870 097.1651 130.0223 0001409 053.3888 067.5220 15.31997697254655
Epoch (UTC): 16 April 2014 19:52:37
Eccentricity: 0.0001409
inclination: 97.1651°
perigee height: 469 km
apogee height: 471 km
right ascension of ascending node: 130.0223°
argument of perigee: 53.3888°
revolutions per day: 15.31997697
mean anomaly at epoch: 67.5220°
orbit number at epoch: 25465

The dashed part of the orbit path shows where the satellite is in the earth's shadow,  

DLR